Zurück zum Katalog

STARLINK-35389

AktivKommunikationVLEO
NORAD 66434·PAYLOAD·🇺🇸 United States

Gestartet Nov 11, 2025 von Cape Canaveral Space Force Station

Loading…

Nächste Überflüge (nächste 24 Stunden)

TLE

AktuellSource: CelesTrak SupGP

Epoche: Sep 15, 2026, 02:34 UTC

1 66434C 25259N   26258.10743056  .00012834  00000+0  46478-3 0  2582
2 66434  42.9998 284.3256 0001402 263.2700  96.0958 15.27577176    19

Verfolge STARLINK-35389 in Echtzeit mit AllMySat

Download on the App Store